Location: Most
(50.5133°N, 13.6207°E)
Time: 11:51:03
(UTC+01:00)

Oscar 11 - Pass Details

Date: 09 December 2021
Orbit: 611 x 625 km, 97.6° (Epoch: 23 January)

Event Time Altitude Azimuth Distance (km) Brightness Sun altitude
Rises 04:06:57 0° 31° (NNE) 2,914 11.0 -34.9°
Reaches altitude 10° 04:10:38 10° 64° (ENE) 1,997 10.4 -34.3°
Maximum altitude 04:12:14 12° 86° (E) 1,876 10.3 -34.1°
Drops below altitude 10° 04:13:49 10° 107° (ESE) 1,987 10.4 -33.8°
Sets 04:17:27 0° 140° (SE) 2,881 10.9 -33.2°
